Flag for Guatemala Weather past 2 weeks in Guatemala, Guatemala

Now
72 °F

Thundershowers. Scattered clouds.


Feels Like: 71 °F
Forecast: N/A
Wind: 14 mph from Northeast

Location: Guatemala Aeropuertola Aurora

Current Time: Sep 1, 2015 at 2:46:59 PM

Latest Report: Sep 1, 2015 at 2:00 PM


Visibility: N/A

Pressure: 30.24 "Hg (25.32 "Hg at 1533m altitude)

Humidity: 83%

Dew point: 66 °F

Location of GuatemalaLocation

Historic Weather in Guatemala — Graph

°F

Guatemala temperature yesterday

Maximum temperature yesterday: 81 °F (at 1:00 PM)
Minimum temperature yesterday: 63 °F (at 4:00 AM)
Average temperature yesterday: 69 °F

Past Weeks' High & Low Weather Summary

 TemperatureHumidityPressure
High82 °F (Aug 21, 3:00 PM)100% (Aug 18, 2:00 AM)30.36 "Hg (Aug 18, 2:00 AM)
Low59 °F (Aug 24, 6:00 AM)30% (Aug 22, 4:00 PM)30.15 "Hg (Aug 28, 4:00 PM)
Average70 °F75%30.27 "Hg
* Reported Aug 17 2:00 PM — Sep 1 2:00 PM, Guatemala, Weather by CustomWeather, © 2015

Note: Actual official high and low records may vary slightly from our data, if they occured in-between our weather recording intervals... More about our weather records

Advertising

Guatemala weather history for previous 24 hours

 ConditionsComfort  
Time TempWeatherWind HumidityBarometerVisibility
2:00 PM
Tue, Sep 1
72 °FThundershowers. Scattered clouds.14 mph83%30.24 "HgN/A
1:25 PMN/AThunderstorms.9 mphN/AN/AN/A
1:15 PMN/AStrong thunderstorms.14 mphN/AN/A1 mi
1:05 PMN/ALight rain.14 mphN/AN/AN/A
1:00 PM79 °FScattered clouds.5 mph58%30.24 "HgN/A
12:00 PM79 °FPassing clouds.9 mph58%30.27 "HgN/A
11:00 AM77 °FPartly sunny.9 mph69%30.30 "HgN/A
10:00 AM73 °FPartly sunny.9 mph69%30.30 "HgN/A
9:00 AM70 °FPartly sunny.12 mph78%30.30 "HgN/A
8:00 AM68 °FOvercast.9 mph83%30.30 "HgN/A
7:00 AM64 °FPassing clouds.9 mph88%30.30 "HgN/A
6:00 AM63 °FBroken clouds.12 mph94%30.30 "HgN/A
5:00 AM63 °FPartly cloudy.7 mph94%30.27 "HgN/A
4:00 AM64 °FPassing clouds.12 mph94%30.30 "HgN/A
3:00 AM64 °FPassing clouds.7 mph94%30.30 "HgN/A
2:00 AM64 °FPartly cloudy.5 mph100%30.33 "HgN/A
1:00 AM64 °FPartly cloudy.7 mph94%30.33 "HgN/A
12:00 AM64 °FLow clouds.7 mph94%30.33 "HgN/A
11:00 PM
Mon, Aug 31
64 °FPassing clouds.7 mph94%30.36 "HgN/A
10:00 PM66 °FPartly cloudy.7 mph94%30.36 "Hg5 mi
9:03 PM66 °FStrong thunderstorms. Passing clouds.7 mph94%30.33 "Hg1 mi
8:00 PM66 °FFog.No wind100%30.30 "Hg3 mi
7:00 PM66 °FPartly cloudy.5 mph100%30.27 "Hg5 mi
6:00 PM68 °FThunderstorms. Broken clouds.No wind94%30.24 "Hg4 mi
5:22 PMN/AThunderstorms.5 mphN/AN/A5 mi
5:00 PM68 °FDrizzle. Broken clouds.5 mph88%30.24 "HgN/A
3:00 PM70 °FThunderstorms. Broken clouds.7 mph88%30.24 "Hg4 mi
2:00 PM81 °FScattered clouds.7 mph51%30.24 "HgN/A
Weather by CustomWeather, © 2015

See weather overviewHow to use our weather pages